Content
SEND FEEDBACK

Daily
Averages
Monthly
Summary
Czech Republic

BRNO, CZECH REPUBLIC


Home > Europe > Czech Republic
Elevation: 807 feet     Latitude: 49 09N     Longitude: 016 42E

WEATHER
 
SELECT A DAY
Number of Records: 285,962;   Date Range: 2/20/97 - 7/20/14
 
SHARE

PRINT THIS DATA

[ ← Previous Day ]
WEATHER ALMANAC - MARCH 3, 2013
[ Next Day → ]
[ °C ]   °F
Weather ElementAverageHighLow
Temperature33.5 °F42.8 °F (12:30 pm)23 °F (6:30 am)
Dewpoint24.1 °F26.6 °F (9:00 am)21.2 °F (6:30 am)
Humidity69 %93 % (5:00 am)40 % (1:00 pm)
Barometer30.09 in30.18 in (11:30 pm)30.06 in (4:00 am)
Wind Speed7.5 mph19.6 mph (2:30 pm)
Weather ElementAverage
Visibility5.9 mi
Wind DirectionSW (223.1 °)

Weather ElementTotal
Precipitation---
Heating Degree Days32.1 (Base 65)
Averaged from 51 records on March 3, 2013
WEATHER CONDITIONS BREAKOUT
WIND DIRECTION BREAKOUT
WEATHER BY HOUR - MARCH 3, 2013
[ °C ]   °F
Local TimeTemperatureDewpointHumidityBarometerVisibilityWind DirectionWind SpeedGust SpeedPrecipitationEventsConditions
12:30 AM28.4 °F23.0 °F80 %30.09 inWNW (300°)3.5 mphClear
1:00 AM29.0 °F23.0 °F68 %30.17 in12.0 miWNW (290°)2.2 mphClear
1:00 AM28.4 °F23.0 °F80 %30.09 inWNW (290°)3.5 mphClear
1:30 AM26.6 °F23.0 °F86 %30.09 inVariable1.2 mphClear
2:00 AM28.4 °F23.0 °F80 %30.09 inSW (230°)3.5 mphClear
2:30 AM26.6 °F23.0 °F86 %30.09 inSSW (210°)3.5 mphClear
3:00 AM26.6 °F23.0 °F86 %30.09 inVariable1.2 mphClear
3:30 AM26.6 °F23.0 °F86 %30.09 in5.0 miCalm
4:00 AM26.6 °F23.0 °F86 %30.06 in5.0 miCalm
4:30 AM26.6 °F23.0 °F86 %30.06 in5.0 miEast (90°)2.3 mph
5:00 AM24.8 °F23.0 °F93 %30.06 in3.7 miSSW (200°)2.3 mph
5:30 AM24.8 °F23.0 °F93 %30.06 in3.1 miCalmMist
6:00 AM24.8 °F23.0 °F93 %30.06 in3.1 miSE (140°)1.2 mphMist
6:30 AM23.0 °F21.2 °F93 %30.06 in3.1 miVariable1.2 mphMist
7:00 AM25.0 °F22.0 °F81 %30.14 in2.0 miNNW (340°)4.5 mphMist
7:00 AM24.8 °F23.0 °F93 %30.06 in2.2 miVariable2.3 mphMist
7:30 AM24.8 °F23.0 °F93 %30.06 in3.1 miVariable2.3 mphMist
8:00 AM26.6 °F23.0 °F86 %30.06 in3.1 miCalmMist
8:30 AM28.4 °F24.8 °F86 %30.09 in3.7 miVariable2.3 mph
9:00 AM32.0 °F26.6 °F80 %30.09 in3.7 miVariable2.3 mph
9:30 AM33.8 °F24.8 °F70 %30.09 in5.0 miSW (220°)5.8 mph
10:00 AM35.6 °F24.8 °F65 %30.09 in6.2 miWest (270°)6.9 mphPartly Cloudy
10:30 AM37.4 °F24.8 °F60 %30.09 in6.2 miWest (270°)6.9 mphPartly Cloudy
11:00 AM39.2 °F24.8 °F56 %30.09 in6.2 miWNW (290°)6.9 mphPartly Cloudy
11:30 AM41.0 °F26.6 °F57 %30.09 in6.2 miVariable3.5 mphScattered Clouds
12:00 PM41.0 °F26.6 °F57 %30.06 in6.2 miSSW (210°)5.8 mphMostly Cloudy
12:30 PM42.8 °F26.6 °F53 %30.06 in6.2 miWNW (300°)16.1 mphMostly Cloudy
1:00 PM42.0 °F26.0 °F40 %30.11 in16.0 miNW (310°)11.2 mphMostly Cloudy
1:00 PM41.0 °F26.6 °F57 %30.06 in6.2 miNW (310°)12.7 mphMostly Cloudy
1:30 PM41.0 °F26.6 °F57 %30.06 in6.2 miWNW (300°)16.1 mphMostly Cloudy
2:00 PM42.8 °F26.6 °F53 %30.06 in6.2 miNW (310°)17.3 mphMostly Cloudy
2:30 PM41.0 °F26.6 °F57 %30.06 in6.2 miWNW (300°)19.6 mphMostly Cloudy
3:00 PM39.2 °F26.6 °F61 %30.06 in6.2 miNW (310°)15.0 mphMostly Cloudy
3:30 PM39.2 °F24.8 °F56 %30.06 in6.2 miWNW (300°)15.0 mphMostly Cloudy
4:00 PM39.2 °F24.8 °F56 %30.06 in6.2 miNW (310°)15.0 mphMostly Cloudy
4:30 PM39.2 °F24.8 °F56 %30.06 in6.2 miWNW (300°)17.3 mphMostly Cloudy
5:00 PM37.4 °F24.8 °F60 %30.06 in6.2 miNW (310°)15.0 mphMostly Cloudy
5:30 PM37.4 °F24.8 °F60 %30.06 in6.2 miNW (310°)16.1 mphMostly Cloudy
6:00 PM37.4 °F23.0 °F56 %30.09 in6.2 miWNW (300°)13.8 mphMostly Cloudy
6:30 PM37.4 °F24.8 °F60 %30.09 in6.2 miNW (320°)8.1 mphMostly Cloudy
7:00 PM36.0 °F24.0 °F48 %30.15 in12.0 miNNW (340°)6.7 mphMostly Cloudy
7:00 PM35.6 °F24.8 °F65 %30.09 in6.2 miNorth (350°)5.8 mphMostly Cloudy
7:30 PM35.6 °F24.8 °F65 %30.09 in6.2 miNNW (340°)9.2 mphMostly Cloudy
8:00 PM35.6 °F23.0 °F60 %30.12 in6.2 miNNW (340°)9.2 mphMostly Cloudy
8:30 PM35.6 °F23.0 °F60 %30.12 in6.2 miNNW (340°)9.2 mphMostly Cloudy
9:00 PM35.6 °F23.0 °F60 %30.15 in6.2 miNorth (350°)11.5 mphMostly Cloudy
9:30 PM35.6 °F23.0 °F60 %30.15 in6.2 miNorth (350°)10.4 mphMostly Cloudy
10:00 PM35.6 °F23.0 °F60 %30.15 in6.2 miNNW (340°)8.1 mphMostly Cloudy
10:30 PM35.6 °F23.0 °F60 %30.15 in6.2 miNNW (330°)11.5 mphMostly Cloudy
11:00 PM35.6 °F23.0 °F60 %30.15 in6.2 miNNW (330°)10.4 mphMostly Cloudy
11:30 PM35.6 °F23.0 °F60 %30.18 in6.2 miNNW (330°)8.1 mphScattered Clouds
Hourly data recorded from LKTB, located miles away from Brno, Czech Republic







STORIES FROM OUR PARTNERS